User: anonymous   Login
Location: Ferchesar
(52.6477°N, 12.4298°E)
Time: 07:43:58
(UTC+02:00)
Language:

TIGRISAT - Orbit

View from above orbital plane
View from above orbital plane
View from above satellite
View from above satellite

Ground track
Ground track

The orbit data is extracted from the following two-line orbital elements,

1 40043U 14033AK  21290.26122131  .00000348  00000-0  58136-4 0  9996
2 40043  97.6638 127.6209 0058653 223.1046 136.5563 14.74604863394080
Epoch (UTC): 17 October 2021 06:16:09
Eccentricity: 0.0058653
inclination: 97.6638°
perigee height: 605 km
apogee height: 687 km
right ascension of ascending node: 127.6209°
argument of perigee: 223.1046°
revolutions per day: 14.74604863
mean anomaly at epoch: 136.5563°
orbit number at epoch: 39408

The dashed part of the orbit path shows where the satellite is in the earth's shadow,  

DLR